This is the latest recevied weather packets stored in our database for station/object N7WSS. If no packets are shown the sender has not sent any weather packets the latest 10 day(s).
| Time | Temp. | Humidity | Pressure | Rain* | Wind** | Luminosity | Snow |
|---|---|---|---|---|---|---|---|
| 1788547795 | 33.33° C | 41% | 1014.5 hPa | 0 mm | - | - | - |
| 1788547494 | 33.33° C | 42% | 1014.9 hPa | 0 mm | - | - | - |
| 1788547190 | 32.78° C | 45% | 1014.8 hPa | 0 mm | - | - | - |
| 1788546885 | 32.78° C | 43% | 1014.9 hPa | 0 mm | - | - | - |
| 1788546580 | 32.78° C | 41% | 1014.8 hPa | 0 mm | - | - | - |
| 1788546276 | 32.78° C | 41% | 1015 hPa | 0 mm | - | - | - |
| 1788545976 | 32.78° C | 44% | 1015 hPa | 0 mm | - | - | - |
| 1788545671 | 32.78° C | 45% | 1015.1 hPa | 0 mm | - | - | - |
| 1788545366 | 32.22° C | 46% | 1015 hPa | 0 mm | - | - | - |
| 1788545061 | 32.78° C | 45% | 1015 hPa | 0 mm | - | - | - |
| 1788544761 | 32.22° C | 47% | 1015.1 hPa | 0 mm | - | - | - |
| 1788544460 | 32.78° C | 47% | 1015.4 hPa | 0 mm | - | - | - |
| 1788544160 | 32.22° C | 48% | 1015.3 hPa | 0 mm | - | - | - |
| 1788543855 | 32.22° C | 47% | 1015.4 hPa | 0 mm | - | - | - |
| 1788543551 | 31.67° C | 47% | 1015.4 hPa | 0 mm | - | - | - |
| 1788543247 | 31.67° C | 49% | 1015.5 hPa | 0 mm | - | - | - |
| 1788542943 | 31.67° C | 48% | 1015.5 hPa | 0 mm | - | - | - |
| 1788542642 | 31.11° C | 49% | 1015.3 hPa | 0 mm | - | - | - |
| 1788542337 | 31.11° C | 50% | 1015.4 hPa | 0 mm | - | - | - |
| 1788542032 | 31.11° C | 50% | 1015.5 hPa | 0 mm | - | - | - |
| 1788541728 | 31.11° C | 51% | 1015.6 hPa | 0 mm | - | - | - |
| 1788541423 | 30.56° C | 51% | 1015.6 hPa | 0 mm | - | - | - |
| 1788541119 | 30° C | 54% | 1015.4 hPa | 0 mm | - | - | - |
| 1788540817 | 30° C | 53% | 1016 hPa | 0 mm | - | - | - |
| 1788540513 | 30° C | 54% | 1015.7 hPa | 0 mm | - | - | - |
* Rain latest hour (hover to see other rain measurements)
** Current wind speed in m/s (hover to see current wind gust speed)